Home   Weather   Erding   Past weeks

Flag for Germany Past Weather in Erding, Bavaria, Germany — Yesterday and Last 2 Weeks

Now
28 °F

Ice fog.


Feels Like: 23 °F
Forecast: 19 / 39 °F
Wind: 5 mph from Southeast

Location: Munich / Franz Josef Strauss Airport

Current Time: Dec 7, 2016 at 11:42:13 am

Latest Report: Dec 7, 2016 at 11:20 am


Visibility: 2 mi

Pressure: 30.57 "Hg

Humidity: 100%

Dew Point: 28 °F

Location of ErdingLocation

Past Weather in Erding — Graph

°F

Erding Temperature Yesterday

Maximum temperature yesterday: 28 °F (at 12:20 am)
Minimum temperature yesterday: 25 °F (at 5:20 am)
Average temperature yesterday: 27 °F

High & Low Weather Summary for the Past Weeks

 TemperatureHumidityPressure
High54 °F (Nov 22, 11:20 am)100% (Nov 22, 5:50 pm)30.57 "Hg (Nov 22, 5:50 pm)
Low14 °F (Nov 30, 5:20 am)36% (Dec 1, 2:50 pm)29.89 "Hg (Nov 22, 10:20 am)
Average34 °F91%30.22 "Hg
* Reported Nov 22 10:20 am — Dec 7 10:20 am, Erding, Weather by CustomWeather, © 2016

Note: Actual official high and low records may vary slightly from our data, if they occured in-between our weather recording intervals... More about our weather records

Advertising

Erding Weather History for the Previous 24 Hours

Scroll right to see more
 ConditionsComfort  
Time TempWeatherWind HumidityBarometerVisibility
10:20 am
Wed, Dec 7
27 °FIce fog.3 mph100%30.57 "Hg2 mi
9:50 am27 °FIce fog.3 mph100%30.57 "Hg2 mi
9:20 am27 °FIce fog.5 mph100%30.57 "Hg1 mi
8:50 am27 °FIce fog.5 mph100%30.57 "Hg1 mi
8:20 am27 °FPartly sunny.5 mph100%30.57 "Hg1 mi
7:50 am27 °FCloudy.6 mph100%30.54 "Hg1 mi
7:20 am27 °FIce fog.5 mph100%30.54 "Hg1 mi
6:50 am27 °FIce fog.5 mph100%30.54 "Hg1 mi
6:20 am27 °FIce fog.3 mph100%30.54 "Hg1 mi
5:50 am27 °FIce fog.2 mph100%30.57 "Hg1 mi
5:20 am27 °FIce fog.3 mph100%30.54 "Hg1 mi
4:50 am27 °FIce fog.3 mph100%30.54 "Hg1 mi
4:20 am27 °FIce fog.2 mph100%30.54 "Hg1 mi
3:50 am27 °FIce fog.3 mph100%30.54 "Hg1 mi
3:20 am27 °FIce fog.2 mph100%30.54 "Hg1 mi
2:50 am27 °FIce fog.3 mph100%30.54 "Hg0 mi
2:20 am27 °FIce fog.3 mph100%30.54 "Hg0 mi
1:50 am27 °FIce fog.5 mph100%30.51 "Hg0 mi
1:20 am27 °FIce fog.6 mph100%30.51 "Hg0 mi
12:50 am27 °FIce fog.6 mph100%30.51 "Hg0 mi
12:20 am27 °FIce fog.5 mph100%30.51 "Hg0 mi
11:50 pm
Tue, Dec 6
27 °FIce fog.3 mph100%30.51 "Hg0 mi
11:20 pm27 °FIce fog.3 mph100%30.51 "Hg0 mi
10:50 pm27 °FIce fog.3 mph100%30.51 "Hg0 mi
10:20 pm27 °FIce fog.2 mph100%30.51 "Hg0 mi
9:50 pm27 °FIce fog.5 mph100%30.51 "Hg0 mi
9:20 pm27 °FIce fog.2 mph100%30.51 "Hg0 mi
8:50 pm27 °FIce fog.3 mph100%30.51 "Hg0 mi
8:20 pm27 °FIce fog.1 mph100%30.51 "Hg0 mi
7:50 pm28 °FIce fog.1 mph100%30.51 "Hg1 mi
6:50 pm28 °FIce fog.2 mph100%30.51 "Hg0 mi
6:20 pm28 °FIce fog.2 mph100%30.48 "Hg0 mi
5:50 pm28 °FIce fog.3 mph100%30.48 "Hg0 mi
5:20 pm28 °FIce fog.3 mph100%30.48 "Hg0 mi
4:50 pm28 °FIce fog.3 mph100%30.48 "Hg0 mi
4:20 pm28 °FIce fog.3 mph100%30.48 "Hg0 mi
3:50 pm28 °FIce fog.3 mph100%30.45 "Hg1 mi
3:20 pm28 °FIce fog.1 mph100%30.45 "Hg1 mi
2:50 pm28 °FPartly sunny.1 mph100%30.42 "Hg1 mi
2:20 pm28 °FPartly sunny.3 mph100%30.42 "Hg1 mi
1:50 pm28 °FIce fog.3 mph100%30.42 "Hg1 mi
1:20 pm28 °FIce fog.2 mph100%30.42 "Hg1 mi
12:50 pm28 °FIce fog.3 mph100%30.42 "Hg1 mi
12:20 pm27 °FSnow. Cloudy.3 mph100%30.45 "Hg1 mi
11:50 am27 °FChilly.1 mph100%30.45 "Hg1 mi
11:20 am27 °FIce fog.3 mph100%30.45 "Hg1 mi
Weather by CustomWeather, © 2016

See weather overviewHow to use our weather pages